Regional Weather Roundup
Issued by NWS Green Bay, WI

Home | Current Version | Previous Version | Graphics & Text | Print | Product List | Glossary Off
Versions: 1 2 3 4 5 6 7 8 9 10 11 12 13 14 15 16 17 18 19 20 21 22 23 24 25 26 27 28 29 30 31 32 33 34 35 36 37 38 39 40 41 42 43 44 45 46 47 48 49 50

000
ASUS43 KGRB 280500
RWRGRB

NORTH-CENTRAL AND NORTHEAST WISCONSIN REGIONAL WEATHER ROUNDUP
NATIONAL WEATHER SERVICE GREEN BAY WI
1100 PM CST MON FEB 27 2017

WIZ005-009-010>012-018-019-280600-
NORTH CENTRAL WISCONSIN

CITY           SKY/WX    TMP DP  RH WIND       PRES   REMARKS
IRONWOOD       CLOUDY    35  20  54 S13G18    29.89F
MANITOWISH WTR NOT AVBL
ARBOR VITAE    NOT AVBL
EAGLE RIVER    NOT AVBL
LAND O LAKES   NOT AVBL
RHINELANDER    CLOUDY    32  25  75 SE3       29.95F
PHILLIPS       NOT AVBL
ANTIGO         NOT AVBL
TOMAHAWK       NOT AVBL
MERRILL        NOT AVBL
$$

WIZ013-073-280600-
NORTHEAST WISCONSIN

CITY           SKY/WX    TMP DP  RH WIND       PRES   REMARKS
IRON MOUNTAIN  CLOUDY    30  23  75 SE3       29.99F
MARINETTE      CLOUDY    32  30  92 S5        30.05S
$$

WIZ017-030-035>037-045-280600-
CENTRAL WISCONSIN

CITY           SKY/WX    TMP DP  RH WIND       PRES   REMARKS
MEDFORD        NOT AVBL
WAUSAU         CLOUDY    33  27  78 E6        29.96F
MOSINEE        NOT AVBL
MARSHFIELD     CLOUDY    34  28  79 E5        29.94F
WISC RAPIDS    CLOUDY    35  30  82 SE6       29.97F
STEVENS POINT  NOT AVBL
WAUPACA        NOT AVBL
SHAWANO        CLOUDY    32  29  90 CALM      30.02F
CLINTONVILLE   NOT AVBL
WAUTOMA        CLOUDY    31  29  92 CALM      29.99F
$$

WIZ038-039-048-051-280600-
FOX VALLEY

CITY           SKY/WX    TMP DP  RH WIND       PRES   REMARKS
NWS GREEN BAY  CLOUDY    33  31  92 CALM      30.03F
APPLETON       MOCLDY    34  28  80 SE6       30.00S
OSHKOSH        MOCLDY    37  31  78 SE5       30.00F
FOND DU LAC    CLOUDY    38  30  73 SE8       30.00F
$$

WIZ022-050-052-280600-
EAST CENTRAL WISCONSIN

CITY           SKY/WX    TMP DP  RH WIND       PRES   REMARKS
EPHRAIM        NOT AVBL
WASHINGTON ISL NOT AVBL
STURGEON BAY   MOCLDY    35  34  96 SE8       30.06
MANITOWOC      NOT AVBL
SHEBOYGAN      PTCLDY    31  30  96 CALM      30.03F FOG
$$

LMZ563-521-522-541>543-280600-
LAKESHORE

STATION/POSITION TIME  TEMP    WIND        PRES    VSBY  WAVE
                       AIR SEA DIR/SP/G                  HT/PER
                 (UTC) (F)     (DEG/KT/KT) (MB)    (MI)  (FT/S)
SHEBOYGAN LKSHOR 0400   37     170/  8/  8 1018.2F
KEWAUNEE LKSHORE 0430   36     190/  1/  3 1017.4F
NORTHPORT PIER   0440   35     160/  6/  8 1017.9S
SISTER BAY LKSHO 0405   34     150/  5/  6   N/A
CHAMBERS ISLAND  0440   34      CALM  /  5 1017.3F
MENOMINEE LKSHOR 0430   32     120/  5/  6 1016.7F
$$




USA.gov is the U.S. government's official web portal to all federal, state and local government web resources and services.